RYR3349 GCTS-LEMG

Flight info

Callsign RYR3349
Flight time N/A
Altitude 34000
Route KORAL UG5 SONSO DCT NIRAL UN871 ADUBI DCT VJF
Aircraft B738/M-SDE2E3FGHIRWXY/LB1

Departure

Time 2026-05-06 09:00
Airport Tenerife Sur Airport (GCTS)

Arrival

Time N/A
Airport Málaga-Costa del Sol Airport (LEMG)
Time Latitude Longitude Altitude Speed Heading
2026-05-06 08:30 28.04640 -16.57896 225 ft 0 kts
2026-05-06 08:53 28.04618 -16.57899 225 ft 4 kts
2026-05-06 08:53 28.04593 -16.57902 227 ft 2 kts
2026-05-06 08:53 28.04570 -16.57900 224 ft 4 kts 324°
2026-05-06 08:53 28.04559 -16.57877 224 ft 4 kts 271°
2026-05-06 08:54 28.04563 -16.57848 224 ft 4 kts 251°
2026-05-06 08:54 28.04565 -16.57840 227 ft 1 kts 249°
2026-05-06 08:56 28.04560 -16.57854 224 ft 5 kts 249°
2026-05-06 08:56 28.04538 -16.57914 224 ft 11 kts 230°
2026-05-06 08:56 28.04458 -16.57909 224 ft 11 kts 158°
2026-05-06 08:56 28.04402 -16.57916 222 ft 9 kts 234°
2026-05-06 08:57 28.04371 -16.57994 222 ft 14 kts 248°
2026-05-06 08:57 28.04326 -16.58124 222 ft 22 kts 248°
2026-05-06 08:57 28.04261 -16.58311 223 ft 27 kts 248°
2026-05-06 08:57 28.04210 -16.58457 222 ft 21 kts 248°
2026-05-06 08:58 28.04162 -16.58618 220 ft 17 kts 248°
2026-05-06 08:58 28.04110 -16.58767 212 ft 22 kts 248°
2026-05-06 08:58 28.04080 -16.58853 214 ft 10 kts 249°
2026-05-06 08:58 28.04070 -16.58882 212 ft 13 kts 249°
2026-05-06 08:59 28.04019 -16.58992 210 ft 16 kts 211°
2026-05-06 08:59 28.03924 -16.58920 204 ft 21 kts 119°
2026-05-06 08:59 28.03912 -16.58784 195 ft 17 kts 68°
2026-05-06 08:59 28.03963 -16.58638 199 ft 37 kts 68°
2026-05-06 09:00 28.04181 -16.58013 202 ft 131 kts 68°
2026-05-06 09:00 28.04574 -16.56891 772 ft 161 kts 68°
2026-05-06 09:00 28.05007 -16.55653 1803 ft 176 kts 66°
2026-05-06 09:00 28.05473 -16.54298 2705 ft 200 kts 66°
2026-05-06 09:01 28.06022 -16.52701 3154 ft 229 kts 66°
2026-05-06 09:01 28.06620 -16.50991 3885 ft 241 kts 67°
2026-05-06 09:01 28.07233 -16.49242 4706 ft 248 kts 67°
2026-05-06 09:01 28.07901 -16.47278 4935 ft 274 kts 68°
2026-05-06 09:02 28.08636 -16.45384 6130 ft 253 kts 65°
2026-05-06 09:02 28.09121 -16.43368 5686 ft 298 kts 83°
2026-05-06 09:02 28.09196 -16.41099 5936 ft 265 kts 87°
2026-05-06 09:02 28.09255 -16.39104 6031 ft 248 kts 86°
2026-05-06 09:03 28.09338 -16.37181 6004 ft 244 kts 85°
2026-05-06 09:03 28.09443 -16.35212 6083 ft 262 kts 85°
2026-05-06 09:03 28.09569 -16.33106 6551 ft 278 kts 85°
2026-05-06 09:03 28.09711 -16.30884 7242 ft 286 kts 85°
2026-05-06 09:04 28.09863 -16.28612 8001 ft 292 kts 84°
2026-05-06 09:04 28.10022 -16.26295 8758 ft 298 kts 84°
2026-05-06 09:04 28.10188 -16.23937 9552 ft 303 kts 84°
2026-05-06 09:04 28.10358 -16.21546 10301 ft 308 kts 85°
2026-05-06 09:05 28.10537 -16.19045 10580 ft 331 kts 85°
2026-05-06 09:05 28.10728 -16.16386 11052 ft 344 kts 85°
2026-05-06 09:05 28.10922 -16.13664 11764 ft 349 kts 85°
2026-05-06 09:05 28.11119 -16.10909 12497 ft 353 kts 85°
2026-05-06 09:06 28.11253 -16.09029 12987 ft 356 kts 85°
2026-05-06 09:06 28.11453 -16.06215 13716 ft 361 kts 85°
2026-05-06 09:06 28.11655 -16.03366 14390 ft 365 kts 85°
2026-05-06 09:06 28.11750 -16.00484 15044 ft 369 kts 92°
2026-05-06 09:07 28.11605 -15.97571 15683 ft 373 kts 95°
2026-05-06 09:07 28.11375 -15.94666 16292 ft 378 kts 96°
2026-05-06 09:07 28.11122 -15.91687 16915 ft 383 kts 96°
2026-05-06 09:07 28.10877 -15.88666 17540 ft 387 kts 96°
2026-05-06 09:08 28.10645 -15.85609 18175 ft 392 kts 96°
2026-05-06 09:08 28.10422 -15.82515 18731 ft 396 kts 96°
2026-05-06 09:08 28.10206 -15.79390 19310 ft 399 kts 96°
2026-05-06 09:08 28.09993 -15.76246 19915 ft 401 kts 96°
2026-05-06 09:09 28.09780 -15.73087 20496 ft 404 kts 96°
2026-05-06 09:09 28.09565 -15.69905 21057 ft 407 kts 96°
2026-05-06 09:09 28.09348 -15.66696 21611 ft 410 kts 96°
2026-05-06 09:09 28.09128 -15.63469 22195 ft 412 kts 96°
2026-05-06 09:10 28.08906 -15.60213 22731 ft 415 kts 96°
2026-05-06 09:10 28.08681 -15.56937 23253 ft 419 kts 96°
2026-05-06 09:10 28.08454 -15.53643 23747 ft 421 kts 96°
2026-05-06 09:10 28.08224 -15.50320 24158 ft 425 kts 96°
2026-05-06 09:11 28.07991 -15.46959 24541 ft 429 kts 96°
2026-05-06 09:11 28.08107 -15.43605 24849 ft 438 kts 79°
2026-05-06 09:11 28.09133 -15.40351 25212 ft 443 kts 60°
2026-05-06 09:11 28.10796 -15.37407 25588 ft 446 kts 55°
2026-05-06 09:12 28.12562 -15.34496 25897 ft 452 kts 54°
2026-05-06 09:12 28.14376 -15.31560 26195 ft 457 kts 54°
2026-05-06 09:12 28.16208 -15.28591 26536 ft 462 kts 54°
2026-05-06 09:12 28.18045 -15.25586 26874 ft 466 kts 55°
2026-05-06 09:13 28.19888 -15.22544 27194 ft 471 kts 55°
2026-05-06 09:13 28.21740 -15.19463 27511 ft 475 kts 55°
2026-05-06 09:13 28.23602 -15.16348 27845 ft 479 kts 56°
2026-05-06 09:13 28.25476 -15.13204 28155 ft 483 kts 56°
2026-05-06 09:14 28.27364 -15.10030 28468 ft 487 kts 56°
2026-05-06 09:14 28.29267 -15.06829 28764 ft 491 kts 56°
2026-05-06 09:14 28.31184 -15.03602 29059 ft 495 kts 56°
2026-05-06 09:14 28.33117 -15.00347 29353 ft 499 kts 56°
2026-05-06 09:15 28.35067 -14.97062 29634 ft 503 kts 56°
2026-05-06 09:15 28.37031 -14.93750 29912 ft 507 kts 56°
2026-05-06 09:15 28.39008 -14.90415 30150 ft 511 kts 56°
2026-05-06 09:15 28.41001 -14.87050 30448 ft 513 kts 56°
2026-05-06 09:16 28.42989 -14.83692 30844 ft 511 kts 56°
2026-05-06 09:16 28.44970 -14.80344 31254 ft 510 kts 56°
2026-05-06 09:16 28.46945 -14.77001 31599 ft 510 kts 56°
2026-05-06 09:16 28.48927 -14.73644 31893 ft 512 kts 56°
2026-05-06 09:17 28.50912 -14.70282 32191 ft 512 kts 56°
2026-05-06 09:17 28.52895 -14.66918 32535 ft 512 kts 56°
2026-05-06 09:17 28.54852 -14.63595 32863 ft 512 kts 56°
2026-05-06 09:17 28.56858 -14.60187 33166 ft 513 kts 57°
2026-05-06 09:18 28.58844 -14.56811 33450 ft 514 kts 57°
2026-05-06 09:18 28.60808 -14.53468 33747 ft 514 kts 57°
2026-05-06 09:18 28.62797 -14.50082 34049 ft 514 kts 57°
2026-05-06 09:19 28.66801 -14.43255 34052 ft 520 kts 57°
2026-05-06 09:19 28.70794 -14.36437 34032 ft 513 kts 57°
2026-05-06 09:20 28.74741 -14.29686 34050 ft 512 kts 57°
2026-05-06 09:20 28.78696 -14.22911 34054 ft 514 kts 57°
2026-05-06 09:21 28.82662 -14.16104 34052 ft 515 kts 57°
2026-05-06 09:21 28.85506 -14.11217 34050 ft 517 kts 57°
2026-05-06 09:22 28.89459 -14.04415 34050 ft 518 kts 57°
2026-05-06 09:22 28.93440 -13.97554 34039 ft 519 kts 57°
2026-05-06 09:23 28.97426 -13.90673 34037 ft 520 kts 57°
2026-05-06 09:23 29.01413 -13.83778 34031 ft 520 kts 57°
2026-05-06 09:24 29.05397 -13.76877 34033 ft 520 kts 57°
2026-05-06 09:24 29.09383 -13.69961 34024 ft 520 kts 57°
2026-05-06 09:25 29.13358 -13.63053 34032 ft 520 kts 57°
2026-05-06 09:25 29.17328 -13.56142 34030 ft 519 kts 57°
2026-05-06 09:26 29.21286 -13.49239 34038 ft 518 kts 57°
2026-05-06 09:26 29.25238 -13.42337 34051 ft 518 kts 57°
2026-05-06 09:27 29.29184 -13.35434 34037 ft 518 kts 57°
2026-05-06 09:27 29.33127 -13.28524 34040 ft 518 kts 57°
2026-05-06 09:28 29.37046 -13.21645 34041 ft 518 kts 57°
2026-05-06 09:28 29.40984 -13.14719 34045 ft 519 kts 57°
2026-05-06 09:29 29.44927 -13.07775 34042 ft 520 kts 57°
2026-05-06 09:29 29.48868 -13.00821 34039 ft 520 kts 58°
2026-05-06 09:30 29.52817 -12.93843 34041 ft 521 kts 58°
2026-05-06 09:30 29.56762 -12.86858 34035 ft 521 kts 58°
2026-05-06 09:31 29.60707 -12.79862 34039 ft 522 kts 58°
2026-05-06 09:31 29.64650 -12.72857 34041 ft 522 kts 58°
2026-05-06 09:32 29.68599 -12.65828 34041 ft 523 kts 58°
2026-05-06 09:32 29.72518 -12.58842 34034 ft 523 kts 58°
2026-05-06 09:33 29.76550 -12.51863 34037 ft 523 kts 56°
2026-05-06 09:33 29.80695 -12.44943 34034 ft 524 kts 56°
2026-05-06 09:34 29.84796 -12.38064 34036 ft 524 kts 56°
2026-05-06 09:34 29.88898 -12.31122 34031 ft 524 kts 56°
2026-05-06 09:35 29.92990 -12.24172 34031 ft 524 kts 56°
2026-05-06 09:35 29.97054 -12.17261 34028 ft 524 kts 56°
2026-05-06 09:36 30.01206 -12.10340 34022 ft 524 kts 51°
2026-05-06 09:36 30.06235 -12.04302 34037 ft 521 kts 41°
2026-05-06 09:37 30.11507 -11.98558 34030 ft 521 kts 40°
2026-05-06 09:37 30.16774 -11.92776 34032 ft 522 kts 41°
2026-05-06 09:38 30.21997 -11.86947 34035 ft 522 kts 41°
2026-05-06 09:38 30.27211 -11.81081 34031 ft 523 kts 41°
2026-05-06 09:39 30.32424 -11.75205 34027 ft 523 kts 41°
2026-05-06 09:39 30.37629 -11.69335 34024 ft 523 kts 41°
2026-05-06 09:40 30.42802 -11.63494 34027 ft 522 kts 41°
2026-05-06 09:40 30.50610 -11.54663 34032 ft 522 kts 41°
2026-05-06 09:41 30.55811 -11.48769 34029 ft 522 kts 41°
2026-05-06 09:41 30.60999 -11.42878 34026 ft 522 kts 41°
2026-05-06 09:42 30.66183 -11.36984 34019 ft 521 kts 41°
2026-05-06 09:42 30.71358 -11.31090 34018 ft 521 kts 41°
2026-05-06 09:43 30.76528 -11.25193 34021 ft 520 kts 41°
2026-05-06 09:43 30.81659 -11.19331 34020 ft 520 kts 41°
2026-05-06 09:44 30.86814 -11.13432 34021 ft 519 kts 41°
2026-05-06 09:44 30.91963 -11.07532 34020 ft 519 kts 42°
2026-05-06 09:45 30.97102 -11.01632 34020 ft 519 kts 42°
2026-05-06 09:45 31.02242 -10.95723 34024 ft 518 kts 42°
2026-05-06 09:46 31.07365 -10.89823 34022 ft 518 kts 42°
2026-05-06 09:46 31.12486 -10.83916 34017 ft 517 kts 42°
2026-05-06 09:47 31.17597 -10.78012 34018 ft 516 kts 42°
2026-05-06 09:47 31.22701 -10.72106 34018 ft 516 kts 42°
2026-05-06 09:48 31.27799 -10.66197 34018 ft 515 kts 42°
2026-05-06 09:48 31.32853 -10.60330 34019 ft 515 kts 42°
2026-05-06 09:49 31.37931 -10.54425 34016 ft 514 kts 42°
2026-05-06 09:49 31.43002 -10.48519 34020 ft 514 kts 42°
2026-05-06 09:50 31.48069 -10.42609 34026 ft 513 kts 42°
2026-05-06 09:50 31.53123 -10.36704 34013 ft 512 kts 42°
2026-05-06 09:51 31.58158 -10.30811 34022 ft 511 kts 42°
2026-05-06 09:51 31.63184 -10.24919 34013 ft 510 kts 42°
2026-05-06 09:52 31.67351 -10.20028 34015 ft 509 kts 42°
2026-05-06 09:52 31.73161 -10.13196 34022 ft 507 kts 42°
2026-05-06 09:53 31.78138 -10.07334 34017 ft 506 kts 42°
2026-05-06 09:53 31.82297 -10.02428 34020 ft 505 kts 42°
2026-05-06 09:54 31.87224 -9.96608 34023 ft 504 kts 42°
2026-05-06 09:54 31.92168 -9.90758 34023 ft 503 kts 42°
2026-05-06 09:55 31.97097 -9.84916 34022 ft 502 kts 42°
2026-05-06 09:55 32.02017 -9.79076 34024 ft 502 kts 43°
2026-05-06 09:56 32.06932 -9.73232 34026 ft 501 kts 43°
2026-05-06 09:56 32.11833 -9.67396 34023 ft 500 kts 43°
2026-05-06 09:57 32.16732 -9.61552 34029 ft 500 kts 43°
2026-05-06 09:57 32.21618 -9.55714 34031 ft 500 kts 43°
2026-05-06 09:58 32.26503 -9.49867 34027 ft 499 kts 43°
2026-05-06 09:58 32.31375 -9.44027 34022 ft 499 kts 43°
2026-05-06 09:59 32.36210 -9.38222 34028 ft 498 kts 43°
2026-05-06 09:59 32.41066 -9.32382 34022 ft 497 kts 43°
2026-05-06 10:00 32.45908 -9.26549 34020 ft 496 kts 43°
2026-05-06 10:00 32.50745 -9.20713 34034 ft 495 kts 43°
2026-05-06 10:01 32.55571 -9.14882 34031 ft 495 kts 43°
2026-05-06 10:01 32.60393 -9.09045 34025 ft 494 kts 43°
2026-05-06 10:02 32.65195 -9.03222 34020 ft 493 kts 43°
2026-05-06 10:02 32.69989 -8.97400 34017 ft 492 kts 43°
2026-05-06 10:03 32.74760 -8.91596 34018 ft 490 kts 43°
2026-05-06 10:03 32.79474 -8.85851 34015 ft 488 kts 43°
2026-05-06 10:04 32.84199 -8.80085 34011 ft 486 kts 43°
2026-05-06 10:04 32.88901 -8.74338 34010 ft 484 kts 43°
2026-05-06 10:05 32.93590 -8.68597 34019 ft 483 kts 43°
2026-05-06 10:05 32.98267 -8.62862 34010 ft 482 kts 43°
2026-05-06 10:06 33.02939 -8.57122 34012 ft 482 kts 43°
2026-05-06 10:06 33.07609 -8.51377 34014 ft 481 kts 43°
2026-05-06 10:07 33.12233 -8.45677 34011 ft 481 kts 43°
2026-05-06 10:07 33.16887 -8.39933 34002 ft 481 kts 43°
2026-05-06 10:08 33.21890 -8.34712 33994 ft 474 kts 28°
2026-05-06 10:08 33.27460 -8.30548 33995 ft 472 kts 27°
2026-05-06 10:09 33.33059 -8.26446 33998 ft 472 kts 27°
2026-05-06 10:09 33.38634 -8.22293 33997 ft 472 kts 28°
2026-05-06 10:10 33.44186 -8.18106 33993 ft 471 kts 28°
2026-05-06 10:10 33.49717 -8.13915 33994 ft 470 kts 28°
2026-05-06 10:11 33.55233 -8.09730 33996 ft 469 kts 28°
2026-05-06 10:11 33.60731 -8.05554 33996 ft 467 kts 28°
2026-05-06 10:12 33.66183 -8.01408 33999 ft 466 kts 28°
2026-05-06 10:12 33.71660 -7.97237 33995 ft 465 kts 28°
2026-05-06 10:13 33.77123 -7.93070 33998 ft 464 kts 28°
2026-05-06 10:13 33.82567 -7.88911 34003 ft 463 kts 28°
2026-05-06 10:14 33.88003 -7.84753 34002 ft 463 kts 29°
2026-05-06 10:14 33.93427 -7.80596 34006 ft 462 kts 29°
2026-05-06 10:15 33.98850 -7.76434 34010 ft 462 kts 29°
2026-05-06 10:15 34.04200 -7.72323 34009 ft 461 kts 29°
2026-05-06 10:16 34.09610 -7.68158 34004 ft 461 kts 29°
2026-05-06 10:16 34.14985 -7.64014 34006 ft 461 kts 29°
2026-05-06 10:17 34.20390 -7.59841 34004 ft 461 kts 29°
2026-05-06 10:17 34.25794 -7.55661 34010 ft 461 kts 29°
2026-05-06 10:18 34.31200 -7.51475 34010 ft 461 kts 29°
2026-05-06 10:18 34.36602 -7.47284 34009 ft 461 kts 29°
2026-05-06 10:19 34.42003 -7.43087 34004 ft 461 kts 29°
2026-05-06 10:19 34.47407 -7.38882 34003 ft 461 kts 29°
2026-05-06 10:20 34.52806 -7.34675 34002 ft 461 kts 29°
2026-05-06 10:20 34.58203 -7.30461 34003 ft 461 kts 29°
2026-05-06 10:21 34.63606 -7.26237 34002 ft 461 kts 29°
2026-05-06 10:21 34.64515 -7.25526 33999 ft 461 kts 29°